Regional Weather Roundup
Issued by NWS

Home | Current Version | Previous Version | Graphics & Text | Print | Product List | Glossary On
Versions: 1 2 3 4 5 6 7 8 9 10 11 12 13 14 15 16 17 18 19 20 21 22 23 24 25 26 27 28 29 30 31 32 33 34 35 36 37 38 39 40 41 42 43 44 45 46 47 48 49 50
558
ASUS45 KABQ 231210
RWRNM
NEW MEXICO REGIONAL WEATHER ROUNDUP
NATIONAL WEATHER SERVICE ALBUQUERQUE NM
600 AM MDT FRI JUN 23 2017

NOTE: "FAIR" MEANS FEW OR NO CLOUDS BELOW 12,000 FEET AGL WITH NO
       SIGNIFICANT WEATHER OR OBSTRUCTIONS TO VISION.

      THIS PRODUCT IS RELEASED AS TWO VERSIONS.  ONE VERSION NEAR
      THE TOP OF THE HOUR CONTAINING PRELIMINARY DATA FROM ALBUQUERQUE
      AND OTHER STATIONS.  A FINAL VERSION WITH ADDITIONAL DATA IS
      ISSUED ABOUT 10 MINUTES AFTER THE HOUR.

NMZ501-503-504-510>518-231300-
NORTHWEST PLATEAU/NORTHCENTRAL MOUNTAINS

CITY           SKY/WX    TMP DP  RH WIND       PRES   REMARKS
FARMINGTON     FAIR      66  28  24 W7        30.05R
6HR MIN TEMP:  64; 6HR MAX TEMP:  74;

LOS ALAMOS     FAIR      66  17  15 CALM      30.17R
SANTA FE       FAIR      58  24  27 N8        30.10R
6HR MIN TEMP:  57; 6HR MAX TEMP:  69;

TAOS           FAIR      52  27  37 NE7       30.19R
ANGEL FIRE     FAIR      37  35  92 CALM      30.31R

$$
NMZ402-403-502-505>509-231300-
WESTCENTRAL MOUNTAINS/SOUTHWEST MOUNTAINS

CITY           SKY/WX    TMP DP  RH WIND       PRES   REMARKS
GALLUP         FAIR      51  24  34 NE5       30.16R
6HR MIN TEMP:  50; 6HR MAX TEMP:  63;

GRANTS         FAIR      49  18  28 CALM      30.17R
SILVER CITY    FAIR      74  40  29 NW15      30.02R

$$
NMZ407-409-411-412-231300-
SOUTHERN DESERTS

CITY           SKY/WX    TMP DP  RH WIND       PRES   REMARKS
DEMING         FAIR      73  40  30 SW8       29.93R
6HR MIN TEMP:  73; 6HR MAX TEMP:  90;

LAS CRUCES     FAIR      78  36  21 W10       29.93R
HOLLOMAN AFB   FAIR      72  37  27 N5        29.89R
ALAMOGORDO     FAIR      77  37  24 N5        29.89R
T OR C         FAIR      83  30  14 NE9       29.95R
6HR MIN TEMP:  81; 6HR MAX TEMP:  88;


$$
NMZ519>523-231300-
CENTRAL VALLEYS/CENTRAL HIGHLANDS

CITY           SKY/WX    TMP DP  RH WIND       PRES   REMARKS
ALBUQUERQUE    FAIR      73  27  18 N8        30.03R
6HR MIN TEMP:  70; 6HR MAX TEMP:  86;

DOUBLE EAGLE     N/A     59  18  20 W6        30.07R
MORIARTY ARPT  FAIR      53  44  71 NE5       30.12R
6HR MIN TEMP:  52; 6HR MAX TEMP:  72;

CLINES CORNERS FAIR      59  45  59 SE5       30.17R
6HR MIN TEMP:  58; 6HR MAX TEMP:  73;

BELEN          FAIR      74  37  26 NE3       30.02R
6HR MIN TEMP:  69; 6HR MAX TEMP:  78;

SOCORRO        FAIR      77  27  15 N3        29.97R
6HR MIN TEMP:  77; 6HR MAX TEMP:  92;


$$
NMZ524>526-539-540-231300-
SOUTHCENTRAL MOUNTAINS

CITY           SKY/WX    TMP DP  RH WIND       PRES   REMARKS
RUIDOSO        FAIR      64  46  52 NW18      30.14R

$$
NMZ527>531-231300-
NORTHEAST HIGHLANDS/NORTHEAST PLAINS

CITY           SKY/WX    TMP DP  RH WIND       PRES   REMARKS
LAS VEGAS      FAIR      52  43  71 N10       30.16R
6HR MIN TEMP:  52; 6HR MAX TEMP:  65;

RATON          FAIR      58  48  69 NE6       30.12R
6HR MIN TEMP:  54; 6HR MAX TEMP:  67;

CLAYTON        FAIR      59  58  96 N9        30.04R
6HR MIN TEMP:  58; 6HR MAX TEMP:  65;


$$
NMZ532>537-231300-
EASTCENTRAL PLAINS

CITY           SKY/WX    TMP DP  RH WIND       PRES   REMARKS
TUCUMCARI      FAIR      65  59  81 N9        29.94R
6HR MIN TEMP:  65; 6HR MAX TEMP:  81;

CANNON AFB     FAIR      67  59  75 NE8       29.94R
6HR MIN TEMP:  66; 6HR MAX TEMP:  76; 6HR PCP: TRACE;

CLOVIS AIRPORT FAIR      65  57  75 N8        29.95R

$$
NMZ028-029-538-231300-
SOUTHEAST PLAINS

CITY           SKY/WX    TMP DP  RH WIND       PRES   REMARKS
ROSWELL        FAIR      74  53  48 NE5       29.86R
6HR MIN TEMP:  73; 6HR MAX TEMP:  88;

ARTESIA        FAIR      73  50  43 N9        29.85R
CARLSBAD       FAIR      76  58  53 W5        29.79R
6HR MIN TEMP:  76; 6HR MAX TEMP:  91;

HOBBS          PTCLDY    79  54  41 NE7       29.88R


$$




USA.gov is the U.S. government's official web portal to all federal, state and local government web resources and services.